Location: Bavegemberg
(50.9500°N, 3.8833°E)
Time: 13:31:38
(UTC+00:00)

FENGYUN 1C DEB - Visible Passes

Search period start: 03 October 2024 00:00
Search period end: 13 October 2024 00:00
Orbit: 758 x 949 km, 98.7° (Epoch: 02 October)

Date Brightness Start Highest point End Pass type
(mag) Time Alt. Az. Time Alt. Az. Time Alt. Az.
03 Oct ? 22:08:57 14° NNE 22:08:57 14° NNE 22:10:06 10° N visible
03 Oct ? 23:51:01 15° NNW 23:51:01 15° NNW 23:51:51 10° NNW visible
04 Oct ? 21:57:56 13° NNE 21:57:56 13° NNE 21:58:53 10° NNE visible
04 Oct ? 23:40:00 15° NNW 23:40:00 15° NNW 23:40:54 10° NNW visible
05 Oct ? 21:46:55 12° NNE 21:46:55 12° NNE 21:47:35 10° NNE visible
05 Oct ? 23:28:59 15° N 23:28:59 15° N 23:29:54 10° N visible
06 Oct ? 21:35:53 11° NNE 21:35:53 11° NNE 21:36:10 10° NNE visible
06 Oct ? 23:17:57 15° N 23:17:57 15° N 23:18:53 10° N visible
07 Oct ? 23:06:53 15° N 23:06:53 15° N 23:07:50 10° N visible
08 Oct ? 22:55:49 15° N 22:55:49 15° N 22:56:44 10° N visible
09 Oct ? 22:44:44 14° N 22:44:44 14° N 22:45:37 10° N visible
10 Oct ? 22:33:39 14° N 22:33:39 14° N 22:34:27 10° N visible
11 Oct ? 22:22:32 13° N 22:22:32 13° N 22:23:15 10° N visible
12 Oct ? 00:04:36 10° NNW 00:04:36 10° NNW 00:04:41 10° NNW visible
12 Oct ? 22:11:24 12° N 22:11:24 12° N 22:12:00 10° N visible
12 Oct ? 23:53:28 11° NNW 23:53:28 11° NNW 23:53:38 10° NNW visible
